星链-1760 (STARLINK-1760 )

导读

STARLINK-1760是美国太空探索技术公司星链星座的一员,于2020年9月3日发射入轨。星链旨在构建全球卫星互联网,该卫星承担低轨通信任务,为全球偏远地区等提供互联网接入服务。截至2026年,已在轨运行超五年,支撑星链网络的通信覆盖与服务能力。

基本信息
目录编号:
46341
目录名称:
STARLINK-1760
国际标识:
2020-062S
轨道中心:
EARTH
卫星名称:
星链-1760
卫星全名:
星链-1760 (STARLINK-1760 )
卫星状态:
已陨落 最后检测时间 2025-02-12
发射日期:
2020-09-03 UTC
国别 :
美国 (US)
星等 :
--
轨道信息
数据来源 国际轨道数据
星历时间: 2025-02-12T17:44:28+0800
轨道信息已过期530天
半长轴: 6532.308km
偏心率: 0.000599
轨道倾角: 53.029°
近地点辐角 248.938°
升交点赤经 271.013°
平近点角 285.195°
近地点: 150.26km
远地点: 158.086km
周期: 87.571分钟
每日圈数: 16.443823
详细信息
固有亮度:
5
最大亮度:
2.5
卫星平台:
Starlink V1.0
覆盖范围:
全球
运营商:
太空探索技术公司
运营商所在国:
美国
制造商(研发单位):
太空探索技术公司
制造商所在国:
美国
使用方式:
暂无
卫星简介
星链(Starlink)计划是由太空探索技术公司(SpaceX)提出的一个巨型低轨卫星互联网星座项目,计划在2019年至2024年间在太空搭建由约1.2万颗卫星组成的“星链”网络,其中1584颗将部署在地球上空550千米处的近地轨道,并从2020年开始工作。该卫星仍在工作。